Weather observations for the past three days for
Fort Dodge
Imperial (Metric)
Date Time (cdt) Wind (mph) Vis. (mi.) Weather Sky Cond. Temperature (ºF) Relative Humidity Wind Chill (°F) Heat Index (°F) Pressure Precipitation (in)
Air Dwpt 6 hour altimeter (in) sea level (mb) 1 hr 3 hr 6 hr
Max. Min.
02 23:56 Calm 10.00 Fair CLR 77 72 85% 78 29.86 1011.4
02 22:56 S 3 10.00 Fair CLR 79 73 82% 82 29.86 1011.3
02 21:56 Calm 10.00 Fair CLR 77 75 94% 78 29.86 1011.5
02 20:56 E 5 10.00 Fair CLR 79 75.9 90% 83 29.85 1011.2
02 19:56 E 5 10.00 Fair CLR 80.1 75.9 87% 85 29.84 1010.9
02 18:56 SE 5 10.00 Fair CLR 84.9 75 89.1 82.9 72% 93 29.85 1011.0
02 17:56 S 3 10.00 Fair CLR 88 73.9 63% 97 29.86 1011.3
02 16:56 S 7 10.00 Fair CLR 88 73 61% 96 29.86 1011.2
02 15:56 S 10 10.00 Fair CLR 88 73 61% 96 29.87 1011.6
02 14:56 S 5 10.00 A Few Clouds FEW120 87.1 73.9 65% 95 29.89 1012.3
02 13:56 SE 7 10.00 Fair CLR 84.9 71.1 63% 90 29.91 1012.9
02 12:56 SE 10 G 17 10.00 Partly Cloudy SCT120 84 69.1 84.9 69.1 61% 88 29.91 1013.0
02 11:56 SE 8 10.00 Mostly Cloudy FEW070 BKN110 81 69.1 67% 84 29.93 1013.6
02 10:56 Calm 10.00 Partly Cloudy SCT110 77 70 79% 79 29.95 1014.6
02 09:56 NW 3 10.00 Thunderstorm in Vicinity OVC110 75.9 69.1 79% 77 29.95 1014.7
02 08:56 S 6 10.00 Fair CLR 75 66.9 76% 76 29.92 1013.6
02 07:56 E 5 10.00 Mostly Cloudy BKN110 71.1 66.9 87% 29.94 1014.4
02 06:56 Calm 10.00 A Few Clouds FEW110 69.1 66 75.9 69.1 90% 29.94 1014.3
02 05:56 Calm 10.00 Partly Cloudy SCT120 69.1 64.9 87% 29.95 1014.4
02 04:56 E 6 10.00 Mostly Cloudy BKN110 69.1 64 84% 29.95 1014.6
02 03:56 NE 7 10.00 Mostly Cloudy BKN100 72 62.1 71% 29.97 1015.0
02 02:56 W 12 5.00 Fog/Mist CLR 73 72 96% 29.96 1014.7
02 01:56 SW 6 10.00 Partly Cloudy SCT085 75 70 84% 75 29.92 1013.2
02 00:56 SW 5 10.00 Partly Cloudy SCT080 75.9 70 88 75.9 82% 77 29.87 1011.8
01 23:56 SW 8 10.00 Fair CLR 79 70 74% 82 29.88 1012.0
01 22:56 S 6 10.00 Fair CLR 81 73.9 79% 86 29.89 1012.2
01 21:56 SE 5 10.00 Mostly Cloudy BKN120 78.1 75 90% 81 29.9 1012.5
01 20:56 E 6 10.00 Fair CLR 78.1 75 90% 81 29.89 1012.3
01 19:56 E 8 10.00 Fair CLR 80.1 75 85% 85 29.87 1012.0
01 18:56 Calm 10.00 A Few Clouds FEW110 88 73.9 91 88 63% 97 29.89 1012.3
01 17:56 S 7 10.00 Fair CLR 89.1 73 59% 97 29.9 1012.6
01 16:56 SE 9 10.00 Fair CLR 90 73 58% 98 29.9 1012.5
01 15:56 SE 9 10.00 Fair CLR 90 75.9 63% 102 29.91 1012.9
01 14:56 SE 9 10.00 A Few Clouds FEW110 91 78.1 66% 106 29.92 1013.4
01 13:56 E 12 10.00 Partly Cloudy SCT110 90 75.9 63% 102 29.94 1014.0
01 12:56 E 7 10.00 Fair CLR 88 77 88 71.1 70% 100 29.96 1014.7
01 11:56 Calm 10.00 Mostly Cloudy FEW019 BKN110 86 75.9 72% 96 29.98 1015.3
01 10:56 NE 6 10.00 A Few Clouds FEW110 84 75.9 77% 93 29.97 1015.3
01 08:56 E 6 10.00 Mostly Cloudy BKN110 78.1 75 90% 81 29.98 1015.4
01 07:56 Calm 8.00 Overcast OVC110 73 73 100% 29.98 1015.6
01 06:56 Calm 5.00 Fog/Mist BKN110 71.1 71.1 72 70 100% 29.97 1015.1
01 05:56 Calm 8.00 Mostly Cloudy BKN100 71.1 71.1 100% 29.97 1015.1
01 04:56 Calm 5.00 Fog/Mist BKN095 71.1 71.1 100% 29.96 1014.7
01 03:56 Calm 8.00 Partly Cloudy SCT100 71.1 71.1 100% 29.95 1014.6
01 02:56 Calm 10.00 Overcast BKN080 OVC120 71.1 71.1 100% 29.96 1014.9
01 01:56 Calm 6.00 Fog/Mist FEW120 72 72 100% 29.97 1015.1
01 00:56 Calm 8.00 Fair CLR 71.1 71.1 84.9 70 100% 29.97 1015.4
31 23:56 Calm 10.00 Fair CLR 71.1 71.1 100% 29.97 1015.1
31 22:56 Calm 8.00 Fair CLR 72 72 100% 29.95 1014.8
31 21:56 Calm 10.00 Fair CLR 73 73 100% 29.94 1014.3
31 20:56 Calm 7.00 Fair CLR 75 75 100% 72 29.93 1014.0
31 19:56 Calm 10.00 Fair CLR 79 75.9 90% 83 29.92 1013.8
31 18:56 W 3 10.00 Fair CLR 84.9 75 88 82.9 72% 93 29.92 1013.5
31 17:56 W 6 10.00 Fair CLR 87.1 73.9 65% 95 29.92 1013.4
31 16:56 W 6 10.00 Fair CLR 88 73.9 63% 97 29.92 1013.3
31 15:56 SW 6 10.00 Fair CLR 87.1 73.9 65% 95 29.91 1013.1
31 14:56 Vrbl 6 10.00 Fair CLR 86 72 63% 92 29.92 1013.4
31 13:56 W 8 10.00 Fair CLR 84.9 73.9 70% 92 29.91 1013.2
31 12:56 SW 10 10.00 Fair CLR 82.9 73.9 82.9 70 74% 89 29.91 1013.0
31 11:56 NW 6 10.00 A Few Clouds FEW110 81 73 77% 86 29.89 1012.4
31 10:56 NW 6 10.00 Fair CLR 80.1 72 76% 84 29.9 1012.8
31 09:56 W 7 10.00 Fair CLR 82 73 74% 87 29.9 1012.6
31 08:56 W 7 10.00 Fair CLR 77 71.1 82% 79 29.88 1012.2
31 07:56 SW 7 10.00 Fair CLR 71.1 69.1 94% 29.86 1011.6
31 06:56 S 6 10.00 Fair CLR 70 69.1 73.9 69.1 97% 29.83 1010.8
31 05:56 SW 6 10.00 Fair CLR 71.1 69.1 94% 29.83 1010.6
31 04:56 S 3 10.00 Fair CLR 71.1 70 96% 29.82 1010.1
31 03:56 S 3 10.00 Fair CLR 72 71.1 97% 29.82 1010.2
31 02:56 Calm 9.00 Fair CLR 71.1 71.1 100% 29.82 1010.0
31 01:56 Calm 6.00 Fog/Mist CLR 71.1 71.1 100% 29.81 1010.0
31 00:56 Calm 10.00 Fair CLR 73.9 73 80.1 73.9 97% 29.82 1010.2
Date Time (cdt) Wind (mph) Vis. (mi.) Weather Sky Cond. Air Dwpt Max. Min. Relative Humidity Wind Chill (°F) Heat Index (°F) altimeter (in) sea level (mb) 1 hr 3 hr 6 hr
6 hour
Temperature (ºF) Pressure Precipitation (in)